User: anonymous   Login
Location: Unspecified
(0.0000°N, 0.0000°E)
Time: 19:11:07
(UTC+00:00)
Language:

Oscar 16 - Orbit

View from above orbital plane
View from above orbital plane
View from above satellite
View from above satellite

Ground track
Ground track

The orbit data is extracted from the following two-line orbital elements,

1 20439U 90005D   19340.88428823 -.00000002 +00000-0 +15873-4 0  9993
2 20439 098.7152 289.4117 0011361 028.6131 037.7430 14.32773581560418
Epoch (UTC): 06 December 2019 21:13:22
Eccentricity: 0.0011361
inclination: 98.7152°
perigee height: 774 km
apogee height: 790 km
right ascension of ascending node: 289.4117°
argument of perigee: 28.6131°
revolutions per day: 14.32773581
mean anomaly at epoch: 37.7430°
orbit number at epoch: 56041

The dashed part of the orbit path shows where the satellite is in the earth's shadow,  

DLR